Flag for Germany Weather past 2 weeks in Radolfzell am Bodensee, Baden-Württemberg, Germany

Now
64 °F

Overcast.


Feels Like: 64 °F
Forecast: 56 / 75 °F
Wind: 2 mph from Northwest

Location: Konstanz

Current Time: Jul 30, 2014 at 11:24:28 PM

Latest Report: Jul 30, 2014 at 11:00 PM


Visibility: 8 mi

Pressure: 29.93 "Hg

Humidity: 95%

Dew point: 63 °F

Location of Radolfzell am BodenseeLocation

Historic Weather in Radolfzell am Bodensee — Graph

°F

Radolfzell am Bodensee temperature yesterday

Maximum temperature yesterday: 68 °F (at 4:00 PM)
Minimum temperature yesterday: 59 °F (at 8:00 AM)
Average temperature yesterday: 63 °F

Past Weeks' High & Low Weather Summary

 TemperatureHumidityPressure
High91 °F (Jul 19, 6:00 PM)99% (Jul 23, 4:00 AM)30.19 "Hg (Jul 23, 4:00 AM)
Low59 °F (Jul 25, 6:00 AM)14% (Jul 18, 5:00 PM)29.70 "Hg (Jul 28, 7:00 PM)
Average68 °F73%29.93 "Hg
* Reported Jul 15 10:00 PM — Jul 30 10:00 PM, Radolfzell am Bodensee, Weather by CustomWeather, © 2014

Note: Actual official high and low records may vary slightly from our data, if they occured in-between our weather recording intervals... More about our weather records

Advertising

Radolfzell am Bodensee weather history for previous 24 hours

 ConditionsComfort  
Time TempWeatherWind HumidityBarometerVisibility
10:00 PM
Jul 30
64 °FLight rain. Low clouds.2 mph96%29.90 "Hg10 mi
9:00 PM64 °FLow clouds.3 mph96%29.89 "Hg16 mi
8:00 PM64 °FLow clouds.3 mph95%29.87 "Hg9 mi
7:00 PM65 °FOvercast.5 mph90%29.86 "Hg8 mi
6:00 PM64 °FLight rain. Low clouds.3 mph90%29.85 "Hg8 mi
5:00 PM63 °FRain. Low clouds.3 mph95%29.86 "Hg8 mi
4:00 PM64 °FRain. Low clouds.5 mph88%29.85 "Hg6 mi
3:00 PM64 °FRain. Low clouds.5 mph87%29.85 "Hg2 mi
2:00 PM64 °FLow clouds.3 mph87%29.85 "Hg9 mi
1:00 PM63 °FLight rain. Overcast.5 mph86%29.85 "Hg22 mi
12:00 PM63 °FDrizzle. Overcast.5 mph84%29.83 "Hg22 mi
11:00 AM63 °FOvercast.6 mph83%29.83 "Hg31 mi
10:00 AM63 °FOvercast.5 mph84%29.82 "Hg31 mi
9:00 AM62 °FOvercast.5 mph85%29.82 "Hg34 mi
8:00 AM62 °FOvercast.5 mph83%29.80 "Hg34 mi
7:00 AM62 °FOvercast.5 mph83%29.80 "Hg37 mi
6:00 AM61 °FOvercast.3 mph84%29.80 "Hg37 mi
5:00 AM62 °FOvercast.2 mph84%29.80 "Hg43 mi
4:00 AM62 °FOvercast.5 mph85%29.80 "Hg43 mi
3:00 AM62 °FOvercast.3 mph86%29.81 "Hg40 mi
2:00 AM62 °FOvercast.3 mph85%29.80 "Hg43 mi
1:00 AM63 °FOvercast.3 mph84%29.80 "Hg43 mi
12:00 AM64 °FOvercast.2 mph82%29.81 "Hg43 mi
11:00 PM
Jul 29
65 °FOvercast.3 mph78%29.80 "Hg43 mi
Weather by CustomWeather, © 2014

See weather overviewHow to use our weather pages